Location: Cudham
(51.3000°N, 0.0667°E)
Time: 03:38:01
(UTC+00:00)

COSMOS 2428 - Pass Details

Date: 15 May 2026
Orbit: 844 x 855 km, 70.9° (Epoch: 8 June)

Event Time Altitude Azimuth Distance (km) Brightness Sun altitude
Rises 22:48:40 0° 329° (NNW) 3,426 7.4 -18.1°
Reaches altitude 10° 22:51:08 10° 329° (NNW) 2,485 6.3 -18.2°
Maximum altitude 22:56:51 84° 242° (WSW) 858 2.7 -18.5°
Enters shadow 22:59:33 33° 156° (SSE) 1,396 3.3 -18.6°
